,,PA_Meas_PMT16A,,PR_Meas_QMR101_102,,RH_Meas_QMH101,,SR_Meas_QMS101,,TA_Meas_QMH101,,GenWind,,GenWind,
time,status,PA,status,PR,status,RH,status,SR,status,TA,status,DirAvg,status,SpdAvg,
2014-03-31, 00:01:04,INVALID - VALUE NOT AVAILABLE,0,INVALID - VALUE NOT AVAILABLE,0,INVALID - VALUE NOT AVAILABLE,0,INVALID - VALUE NOT AVAILABLE,0,INVALID - VALUE NOT AVAILABLE,0,INVALID,360,INVALID,0,
2014-03-31, 05:10:04,INVALID - VALUE NOT AVAILABLE,0,INVALID - VALUE NOT AVAILABLE,0,INVALID - VALUE NOT AVAILABLE,0,INVALID - VALUE NOT AVAILABLE,0,INVALID - VALUE NOT AVAILABLE,0,INVALID,360,INVALID,0,
2014-03-31, 07:19:04,VALID,916.349,VALID,0,VALID,95.7349,VALID,57.481,VALID,19.5858,VALID,147,VALID,0.798047,
2014-03-31, 07:20:04,VALID,916.338,VALID,0,VALID,95.7349,VALID,61.6712,VALID,19.6053,VALID,147,VALID,0.413672,
2014-03-31, 07:21:04,VALID,916.387,VALID,0,VALID,95.7349,VALID,66.8284,VALID,19.6428,VALID,147,VALID,0.508984,
2014-03-31, 07:22:04,VALID,916.403,VALID,0,VALID,95.7196,VALID,74.027,VALID,19.6833,VALID,147,VALID,0.2125,
2014-03-31, 07:23:04,VALID,916.469,VALID,0,VALID,95.7196,VALID,86.4901,VALID,19.7013,VALID,147,VALID,0.228906,
2014-03-31, 07:24:04,VALID,916.499,VALID,0,VALID,95.7349,VALID,90.0357,VALID,19.7598,VALID,147,VALID,0.292578,
2014-03-31, 07:25:04,VALID,916.531,VALID,0,VALID,95.7349,VALID,109.912,VALID,19.8588,VALID,147,VALID,0.191797,
2014-03-31, 07:26:04,VALID,916.593,VALID,0,VALID,95.7196,VALID,107.549,VALID,19.9173,VALID,147,VALID,0.326562,
2014-03-31, 07:27:04,VALID,916.613,VALID,0,VALID,95.7425,VALID,108.945,VALID,20.0148,VALID,147,VALID,0.127734,
2014-03-31, 07:28:04,VALID,916.643,VALID,0,VALID,95.6967,VALID,98.7384,VALID,20.0928,VALID,147,VALID,0.391797,
2014-03-31, 07:29:04,VALID,916.701,VALID,0,VALID,95.6662,VALID,91.9696,VALID,20.1498,VALID,148,VALID,0.135547,
2014-03-31, 07:30:04,VALID,916.717,VALID,0,VALID,95.6205,VALID,89.2836,VALID,20.2278,VALID,147,VALID,0,
2014-03-31, 07:31:04,VALID,916.718,VALID,0,VALID,95.5671,VALID,87.4571,VALID,20.3253,VALID,147,VALID,0,
2014-03-31, 07:32:04,VALID,916.726,VALID,0,VALID,95.4757,VALID,87.3497,VALID,20.4033,VALID,148,VALID,0,
2014-03-31, 07:33:04,VALID,916.754,VALID,0,VALID,95.3079,VALID,85.738,VALID,20.4618,VALID,147,VALID,0.413672,
2014-03-31, 07:34:04,VALID,916.805,VALID,0,VALID,95.1402,VALID,83.6967,VALID,20.5219,VALID,147,VALID,0.435547,
2014-03-31, 07:35:04,VALID,916.837,VALID,0,VALID,94.9573,VALID,79.9362,VALID,20.5804,VALID,147,VALID,0.34375,
2014-03-31, 07:36:04,VALID,916.871,VALID,0,VALID,94.66,VALID,75.2088,VALID,20.5999,VALID,147,VALID,0.260938,
2014-03-31, 07:37:04,VALID,916.924,VALID,0,VALID,94.2712,VALID,71.6632,VALID,20.5789,VALID,147,VALID,0.346875,
2014-03-31, 07:38:04,VALID,916.943,VALID,0,VALID,93.8824,VALID,69.5144,VALID,20.639,VALID,147,VALID,0.274609,
2014-03-31, 07:39:04,VALID,916.98,VALID,0,VALID,93.425,VALID,67.3656,VALID,20.6585,VALID,148,VALID,0.318359,
2014-03-31, 07:40:04,VALID,917.02,VALID,0,VALID,93.059,VALID,64.3572,VALID,20.717,VALID,148,VALID,0.0386719,
2014-03-31, 07:41:04,VALID,917.065,VALID,0,VALID,92.7617,VALID,59.2001,VALID,20.756,VALID,147,VALID,0,
2014-03-31, 07:55:04,VALID,917.401,VALID,0,VALID,92.2357,VALID,57.6959,VALID,20.6585,VALID,324,VALID,0.446484,
2014-03-31, 07:56:04,VALID,917.403,VALID,0,VALID,92.2891,VALID,61.7787,VALID,20.678,VALID,324,VALID,0.39375,
2014-03-31, 07:57:04,VALID,917.397,VALID,0,VALID,92.2814,VALID,66.6135,VALID,20.6975,VALID,324,VALID,0.473828,
2014-03-31, 07:58:04,VALID,917.395,VALID,0,VALID,92.3043,VALID,72.2005,VALID,20.6975,VALID,324,VALID,0,
2014-03-31, 07:59:04,VALID,917.401,VALID,0,VALID,92.4339,VALID,78.0023,VALID,20.7154,VALID,324,VALID,0.377734,
2014-03-31, 08:00:04,VALID,917.388,VALID,0,VALID,92.4873,VALID,83.2669,VALID,20.7739,VALID,324,VALID,0.371484,
2014-03-31, 08:01:04,VALID,917.402,VALID,0,VALID,92.4492,VALID,87.0273,VALID,20.8129,VALID,324,VALID,0.655859,
2014-03-31, 08:02:04,VALID,917.405,VALID,0,VALID,92.3043,VALID,88.4241,VALID,20.873,VALID,324,VALID,0.308984,
2014-03-31, 08:03:04,VALID,917.42,VALID,0,VALID,92.0604,VALID,86.9199,VALID,20.873,VALID,324,VALID,0,
2014-03-31, 08:04:04,VALID,917.417,VALID,0,VALID,92.0146,VALID,83.6967,VALID,20.891,VALID,324,VALID,0.292969,
2014-03-31, 08:05:04,VALID,917.417,VALID,0,VALID,91.8164,VALID,79.1841,VALID,20.9105,VALID,324,VALID,0,
2014-03-31, 08:06:04,VALID,917.428,VALID,0,VALID,91.4505,VALID,78.3246,VALID,20.93,VALID,324,VALID,0.324219,
2014-03-31, 08:07:04,VALID,917.43,VALID,0,VALID,91.3209,VALID,82.4074,VALID,20.9316,VALID,324,VALID,0.203125,
2014-03-31, 08:08:04,VALID,917.459,VALID,0,VALID,91.2904,VALID,91.4324,VALID,20.9511,VALID,324,VALID,0.597266,
2014-03-31, 08:09:04,VALID,917.436,VALID,0,VALID,91.3514,VALID,104.433,VALID,20.9706,VALID,324,VALID,0.465234,
2014-03-31, 08:10:04,VALID,917.459,VALID,0,VALID,91.5115,VALID,117.97,VALID,20.9901,VALID,324,VALID,0.473047,
2014-03-31, 08:11:04,VALID,917.444,VALID,0,VALID,91.5877,VALID,129.359,VALID,20.9885,VALID,324,VALID,0.573047,
2014-03-31, 08:12:04,VALID,917.451,VALID,0,VALID,91.9384,VALID,141.07,VALID,21.0681,VALID,324,VALID,0.513672,
2014-03-31, 08:13:04,VALID,917.406,VALID,0,VALID,92.0146,VALID,155.682,VALID,21.086,VALID,324,VALID,0.48125,
2014-03-31, 08:14:04,VALID,917.456,VALID,0,VALID,92.0299,VALID,168.36,VALID,21.1445,VALID,324,VALID,0.467578,
2014-03-31, 08:15:04,VALID,917.456,VALID,0,VALID,91.5344,VALID,183.509,VALID,21.1445,VALID,324,VALID,0.471094,
2014-03-31, 08:16:04,VALID,917.461,VALID,0,VALID,91.3438,VALID,199.303,VALID,21.1852,VALID,324,VALID,0.195703,
2014-03-31, 08:17:04,VALID,917.464,VALID,0,VALID,91.7173,VALID,220.577,VALID,21.3022,VALID,324,VALID,0.583203,
2014-03-31, 08:18:04,VALID,917.457,VALID,0,VALID,91.298,VALID,246.577,VALID,21.3998,VALID,328,VALID,0.623828,
2014-03-31, 08:19:04,VALID,917.459,VALID,0,VALID,90.8101,VALID,257.966,VALID,21.3949,VALID,328,VALID,0.590234,
2014-03-31, 08:20:04,VALID,917.445,VALID,0,VALID,89.9716,VALID,313.836,VALID,21.5965,VALID,328,VALID,0.635938,
2014-03-31, 08:21:04,VALID,917.421,VALID,0,VALID,89.8191,VALID,298.901,VALID,21.712,VALID,43,VALID,1.19883,
2014-03-31, 08:22:04,VALID,917.432,VALID,0,VALID,89.2321,VALID,218.106,VALID,21.7867,VALID,43,VALID,0.80625,
2014-03-31, 08:23:04,VALID,917.451,VALID,0,VALID,88.8509,VALID,207.791,VALID,21.9478,VALID,43,VALID,0.935547,
2014-03-31, 08:24:04,VALID,917.45,VALID,0,VALID,88.3401,VALID,211.444,VALID,22.0047,VALID,25,VALID,1.28242,
2014-03-31, 08:25:04,VALID,917.437,VALID,0,VALID,87.7684,VALID,252.916,VALID,22.0242,VALID,25,VALID,0.766797,
2014-03-31, 08:26:04,VALID,917.436,VALID,0,VALID,88.4697,VALID,315.555,VALID,22.0582,VALID,22,VALID,1.02461,
2014-03-31, 08:27:04,VALID,917.456,VALID,0,VALID,87.9437,VALID,332.101,VALID,22.1964,VALID,19,VALID,0.910937,
2014-03-31, 08:28:04,VALID,917.459,VALID,0,VALID,88.2258,VALID,333.39,VALID,22.4145,VALID,19,VALID,0.832422,
2014-03-31, 08:29:04,VALID,917.487,VALID,0,VALID,87.898,VALID,345.423,VALID,22.5477,VALID,41,VALID,1.18633,
2014-03-31, 08:30:04,VALID,917.464,VALID,0,VALID,85.5805,VALID,355.2,VALID,22.7463,VALID,52,VALID,1.24414,
2014-03-31, 08:31:04,VALID,917.454,VALID,0,VALID,84.7953,VALID,360.68,VALID,22.8616,VALID,55,VALID,0.653906,
2014-03-31, 08:32:04,VALID,917.456,VALID,0,VALID,84.5208,VALID,359.82,VALID,23.0373,VALID,51,VALID,0.994531,
2014-03-31, 08:33:04,VALID,917.436,VALID,0,VALID,82.9733,VALID,358.639,VALID,23.252,VALID,9,VALID,0.797266,
2014-03-31, 08:34:04,VALID,917.413,VALID,0,VALID,81.6544,VALID,360.358,VALID,23.3691,VALID,9,VALID,0.769531,
2014-03-31, 08:35:04,VALID,917.426,VALID,0,VALID,80.9759,VALID,360.573,VALID,23.3904,VALID,10,VALID,0.514063,
2014-03-31, 08:36:04,VALID,917.391,VALID,0,VALID,81.8526,VALID,352.514,VALID,23.488,VALID,10,VALID,0.541016,
2014-03-31, 08:37:04,VALID,917.41,VALID,0,VALID,81.4714,VALID,361.539,VALID,23.6442,VALID,10,VALID,0.223438,
2014-03-31, 08:38:04,VALID,917.403,VALID,0,VALID,79.8248,VALID,313.728,VALID,23.7986,VALID,10,VALID,0.404297,
2014-03-31, 08:39:04,VALID,917.372,VALID,0,VALID,78.7804,VALID,211.552,VALID,23.6424,VALID,10,VALID,0.522656,
2014-03-31, 08:40:04,VALID,917.383,VALID,0,VALID,79.7943,VALID,185.121,VALID,23.4277,VALID,10,VALID,0.640234,
2014-03-31, 08:41:04,VALID,917.387,VALID,0,VALID,82.2643,VALID,185.981,VALID,23.3496,VALID,107,VALID,0.780078,
2014-03-31, 08:42:04,VALID,917.348,VALID,0,VALID,82.4167,VALID,202.741,VALID,23.0941,VALID,145,VALID,1.54883,
2014-03-31, 08:43:04,VALID,917.345,VALID,0,VALID,83.8118,VALID,299.868,VALID,22.8616,VALID,155,VALID,0.731641,
2014-03-31, 08:44:04,VALID,917.37,VALID,0,VALID,84.3302,VALID,342.308,VALID,22.6665,VALID,154,VALID,1.17852,
2014-03-31, 08:45:04,VALID,917.371,VALID,0,VALID,85.4204,VALID,388.4,VALID,22.5477,VALID,164,VALID,1.075,
2014-03-31, 08:46:04,VALID,917.389,VALID,0,VALID,85.0926,VALID,404.946,VALID,22.4908,VALID,156,VALID,1.1207,
2014-03-31, 08:47:04,VALID,917.372,VALID,0,VALID,85.9159,VALID,429.013,VALID,22.4908,VALID,154,VALID,0.533984,
2014-03-31, 08:48:04,VALID,917.38,VALID,0,VALID,85.8702,VALID,448.997,VALID,22.6079,VALID,163,VALID,1.02305,
2014-03-31, 08:49:04,VALID,917.411,VALID,0,VALID,86.137,VALID,463.823,VALID,22.7836,VALID,144,VALID,0.505469,
2014-03-31, 08:50:04,VALID,917.383,VALID,0,VALID,84.9477,VALID,491.543,VALID,23.0373,VALID,144,VALID,0.281641,
2014-03-31, 08:51:04,VALID,917.408,VALID,0,VALID,82.0051,VALID,507.015,VALID,23.1527,VALID,179,VALID,0.694531,
2014-03-31, 08:52:04,VALID,917.403,VALID,0,VALID,82.554,VALID,428.153,VALID,23.1917,VALID,178,VALID,0.454297,
2014-03-31, 08:53:04,VALID,917.426,VALID,0,VALID,81.8831,VALID,332.101,VALID,23.3478,VALID,176,VALID,0.589453,
2014-03-31, 08:54:04,VALID,917.387,VALID,0,VALID,82.1499,VALID,255.817,VALID,23.5058,VALID,160,VALID,0.908203,
2014-03-31, 08:55:04,VALID,917.433,VALID,0,VALID,81.7306,VALID,193.394,VALID,23.504,VALID,190,VALID,1.31406,
2014-03-31, 08:56:04,VALID,917.469,VALID,0,VALID,81.2504,VALID,154.285,VALID,23.5235,VALID,188,VALID,0.407422,
2014-03-31, 08:57:04,VALID,917.457,VALID,0,VALID,81.662,VALID,128.07,VALID,23.5235,VALID,182,VALID,0.703906,
2014-03-31, 08:58:04,VALID,917.479,VALID,0,VALID,82.3253,VALID,120.012,VALID,23.5626,VALID,182,VALID,0.130859,
2014-03-31, 08:59:04,VALID,917.514,VALID,0,VALID,81.7078,VALID,118.937,VALID,23.543,VALID,173,VALID,0.579297,
2014-03-31, 09:00:04,VALID,917.551,VALID,0,VALID,81.4105,VALID,124.417,VALID,23.3674,VALID,172,VALID,0.570313,
2014-03-31, 09:01:04,VALID,917.563,VALID,0,VALID,82.4625,VALID,141.393,VALID,23.268,VALID,172,VALID,0.0558594,
2014-03-31, 09:02:04,VALID,917.569,VALID,0,VALID,83.5298,VALID,163.74,VALID,23.2502,VALID,172,VALID,0.570313,
2014-03-31, 09:03:04,VALID,917.587,VALID,0,VALID,82.7522,VALID,175.989,VALID,23.1527,VALID,192,VALID,0.481641,
2014-03-31, 09:04:04,VALID,917.585,VALID,0,VALID,83.0495,VALID,177.923,VALID,23.1136,VALID,190,VALID,0.591016,
2014-03-31, 09:05:04,VALID,917.557,VALID,0,VALID,83.8118,VALID,180.609,VALID,23.0924,VALID,166,VALID,0.340234,
2014-03-31, 09:06:04,VALID,917.533,VALID,0,VALID,84.0939,VALID,168.575,VALID,23.0746,VALID,151,VALID,0.751953,
2014-03-31, 09:07:04,VALID,917.517,VALID,0,VALID,84.4827,VALID,159.013,VALID,22.9753,VALID,141,VALID,0.595312,
2014-03-31, 09:08:04,VALID,917.512,VALID,0,VALID,84.9477,VALID,151.707,VALID,22.9575,VALID,141,VALID,0.980078,
2014-03-31, 09:09:04,VALID,917.53,VALID,0,VALID,84.4446,VALID,150.31,VALID,22.8989,VALID,142,VALID,0.958594,
2014-03-31, 09:10:04,VALID,917.489,VALID,0,VALID,84.9477,VALID,154.93,VALID,22.8404,VALID,141,VALID,0.189844,
2014-03-31, 09:11:04,VALID,917.51,VALID,0,VALID,85.8244,VALID,169.327,VALID,22.8777,VALID,136,VALID,0.957031,
2014-03-31, 09:12:04,VALID,917.507,VALID,0,VALID,84.8562,VALID,188.022,VALID,22.8387,VALID,136,VALID,0.698047,
2014-03-31, 09:13:04,VALID,917.496,VALID,0,VALID,84.841,VALID,214.56,VALID,22.8387,VALID,143,VALID,0.714453,
2014-03-31, 09:14:04,VALID,917.52,VALID,0,VALID,84.1091,VALID,247.33,VALID,22.8599,VALID,151,VALID,0.538672,
2014-03-31, 09:15:04,VALID,917.531,VALID,0,VALID,84.3912,VALID,275.264,VALID,22.9362,VALID,149,VALID,0.365234,
2014-03-31, 09:16:04,VALID,917.51,VALID,0,VALID,83.8195,VALID,299.438,VALID,23.0746,VALID,148,VALID,0.273828,
2014-03-31, 09:17:04,VALID,917.531,VALID,0,VALID,83.2477,VALID,349.506,VALID,23.2112,VALID,148,VALID,0.0191406,
2014-03-31, 09:18:04,VALID,917.539,VALID,0,VALID,82.8894,VALID,414.401,VALID,23.4454,VALID,148,VALID,0.192578,
2014-03-31, 09:19:04,VALID,917.511,VALID,0,VALID,82.0432,VALID,388.077,VALID,23.7187,VALID,148,VALID,0.501953,
2014-03-31, 09:20:04,VALID,917.513,VALID,0,VALID,80.9759,VALID,334.249,VALID,23.8944,VALID,113,VALID,0.660156,
2014-03-31, 09:21:04,VALID,917.573,VALID,0,VALID,80.7091,VALID,346.605,VALID,23.9902,VALID,45,VALID,0.776563,
2014-03-31, 09:22:04,VALID,917.542,VALID,0,VALID,79.5199,VALID,549.991,VALID,23.9902,VALID,12,VALID,1.49336,
2014-03-31, 09:23:04,VALID,917.531,VALID,0,VALID,80.4118,VALID,478.113,VALID,23.9121,VALID,23,VALID,0.880469,
2014-03-31, 09:24:04,VALID,917.547,VALID,0,VALID,80.3279,VALID,267.636,VALID,23.9139,VALID,360,VALID,0.773438,
2014-03-31, 09:25:04,VALID,917.594,VALID,0,VALID,80.084,VALID,224.337,VALID,23.8554,VALID,356,VALID,0.292969,
2014-03-31, 09:26:04,VALID,917.582,VALID,0,VALID,80.7091,VALID,205.213,VALID,23.8731,VALID,356,VALID,0.427734,
2014-03-31, 09:27:04,VALID,917.626,VALID,0,VALID,81.441,VALID,206.502,VALID,23.9512,VALID,356,VALID,0.349219,
2014-03-31, 09:28:04,VALID,917.617,VALID,0,VALID,80.7701,VALID,224.659,VALID,23.9707,VALID,333,VALID,1.20391,
2014-03-31, 09:29:04,VALID,917.654,VALID,0,VALID,81.3114,VALID,302.554,VALID,23.8926,VALID,359,VALID,1.2207,
2014-03-31, 09:30:04,VALID,917.685,VALID,0,VALID,82.0432,VALID,294.711,VALID,23.8731,VALID,359,VALID,0.269141,
2014-03-31, 09:31:04,VALID,917.687,VALID,0,VALID,80.4728,VALID,234.329,VALID,23.9316,VALID,12,VALID,1.1707,
2014-03-31, 09:32:04,VALID,917.705,VALID,0,VALID,79.9849,VALID,205.213,VALID,23.9707,VALID,1,VALID,0.704297,
2014-03-31, 09:33:04,VALID,917.681,VALID,0,VALID,79.6723,VALID,183.509,VALID,23.9707,VALID,1,VALID,0.304297,
2014-03-31, 09:34:04,VALID,917.71,VALID,0,VALID,79.7181,VALID,161.054,VALID,23.9316,VALID,1,VALID,0.580859,
2014-03-31, 09:35:04,VALID,917.656,VALID,0,VALID,78.5669,VALID,143.864,VALID,23.9512,VALID,1,VALID,0.254297,
2014-03-31, 09:36:04,VALID,917.666,VALID,0,VALID,78.3077,VALID,132.367,VALID,23.9902,VALID,1,VALID,0.417188,
2014-03-31, 09:37:04,VALID,917.667,VALID,0,VALID,77.2023,VALID,125.599,VALID,23.9902,VALID,1,VALID,0.707422,
2014-03-31, 09:38:04,VALID,917.673,VALID,0,VALID,77.3014,VALID,126.136,VALID,23.9512,VALID,1,VALID,0,
2014-03-31, 09:39:04,VALID,917.646,VALID,0,VALID,77.3319,VALID,134.731,VALID,23.9707,VALID,1,VALID,0,
2014-03-31, 09:40:04,VALID,917.659,VALID,0,VALID,77.5683,VALID,142.789,VALID,24.0683,VALID,1,VALID,0,
2014-03-31, 09:41:04,VALID,917.666,VALID,0,VALID,77.8961,VALID,157.509,VALID,24.1269,VALID,1,VALID,0.137891,
2014-03-31, 09:42:04,VALID,917.677,VALID,0,VALID,78.7118,VALID,160.517,VALID,24.0896,VALID,1,VALID,0.141016,
2014-03-31, 09:43:04,VALID,917.672,VALID,0,VALID,79.3903,VALID,158.261,VALID,24.0097,VALID,1,VALID,0.231641,
2014-03-31, 09:44:04,VALID,917.682,VALID,0,VALID,79.9925,VALID,155.038,VALID,24.0097,VALID,11,VALID,0.453906,
2014-03-31, 09:45:04,VALID,917.683,VALID,0,VALID,80.3127,VALID,156.649,VALID,23.9316,VALID,141,VALID,0.514844,
2014-03-31, 09:46:04,VALID,917.675,VALID,0,VALID,81.2504,VALID,153.856,VALID,23.756,VALID,168,VALID,0.563281,
2014-03-31, 09:47:04,VALID,917.697,VALID,0,VALID,81.8907,VALID,150.955,VALID,23.7169,VALID,168,VALID,0.152344,
2014-03-31, 09:48:04,VALID,917.684,VALID,0,VALID,83.0876,VALID,149.88,VALID,23.6584,VALID,166,VALID,0.333203,
2014-03-31, 09:49:04,VALID,917.642,VALID,0,VALID,83.6746,VALID,149.343,VALID,23.6779,VALID,162,VALID,0.324219,
2014-03-31, 09:50:04,VALID,917.641,VALID,0,VALID,83.2858,VALID,148.806,VALID,23.6584,VALID,64,VALID,1.1875,
2014-03-31, 09:51:04,VALID,917.684,VALID,0,VALID,83.2629,VALID,148.913,VALID,23.4827,VALID,93,VALID,0.494922,
2014-03-31, 09:52:04,VALID,917.683,VALID,0,VALID,83.08,VALID,149.236,VALID,23.3851,VALID,93,VALID,1.19492,
2014-03-31, 09:53:04,VALID,917.673,VALID,0,VALID,83.5831,VALID,150.31,VALID,23.268,VALID,83,VALID,0.973047,
2014-03-31, 09:54:04,VALID,917.695,VALID,0,VALID,85.0926,VALID,151.814,VALID,23.2094,VALID,65,VALID,0.9625,
2014-03-31, 09:55:04,VALID,917.711,VALID,0,VALID,86.0455,VALID,154.071,VALID,23.1917,VALID,50,VALID,1.29883,
2014-03-31, 09:56:04,VALID,917.704,VALID,0,VALID,85.2527,VALID,157.079,VALID,23.0941,VALID,58,VALID,1.35625,
2014-03-31, 09:57:04,VALID,917.694,VALID,0,VALID,85.7253,VALID,160.517,VALID,23.0551,VALID,54,VALID,1.58516,
2014-03-31, 09:58:04,VALID,917.722,VALID,0,VALID,86.2589,VALID,164.063,VALID,23.0356,VALID,79,VALID,0.916797,
2014-03-31, 09:59:04,VALID,917.706,VALID,0,VALID,86.2208,VALID,167.393,VALID,23.016,VALID,78,VALID,1.24258,
2014-03-31, 10:00:04,VALID,917.692,VALID,0,VALID,86.2894,VALID,170.724,VALID,22.938,VALID,52,VALID,1.36445,
2014-03-31, 10:01:04,VALID,917.718,VALID,0,VALID,86.2666,VALID,174.162,VALID,22.9185,VALID,46,VALID,1.31836,
2014-03-31, 10:02:04,VALID,917.711,VALID,0,VALID,87.1204,VALID,177.493,VALID,22.9185,VALID,43,VALID,1.15586,
2014-03-31, 10:03:04,VALID,917.736,VALID,0,VALID,86.8764,VALID,181.146,VALID,22.9592,VALID,61,VALID,0.871094,
2014-03-31, 10:04:04,VALID,917.696,VALID,0,VALID,87.1128,VALID,184.799,VALID,22.9575,VALID,64,VALID,0.311328,
2014-03-31, 10:05:04,VALID,917.728,VALID,0,VALID,86.8764,VALID,188.022,VALID,23.0763,VALID,59,VALID,0.239453,
2014-03-31, 10:06:04,VALID,917.736,VALID,0,VALID,85.0087,VALID,190.815,VALID,23.0941,VALID,88,VALID,0.482422,
2014-03-31, 10:07:04,VALID,917.782,VALID,0,VALID,84.658,VALID,192.857,VALID,23.1739,VALID,88,VALID,0.4125,
2014-03-31, 10:08:04,VALID,917.764,VALID,0,VALID,84.9477,VALID,194.039,VALID,23.2502,VALID,88,VALID,0.451562,
2014-03-31, 10:09:04,VALID,917.794,VALID,0,VALID,84.2616,VALID,195.113,VALID,23.3674,VALID,87,VALID,0.276172,
2014-03-31, 10:10:04,VALID,917.809,VALID,0,VALID,82.7522,VALID,195.435,VALID,23.4437,VALID,43,VALID,0.346094,
2014-03-31, 10:11:04,VALID,917.802,VALID,0,VALID,81.5705,VALID,195.113,VALID,23.5412,VALID,43,VALID,0.237109,
2014-03-31, 10:12:04,VALID,917.835,VALID,0,VALID,81.2504,VALID,194.576,VALID,23.5998,VALID,43,VALID,0.0558594,
2014-03-31, 10:13:04,VALID,917.855,VALID,0,VALID,80.2669,VALID,193.824,VALID,23.6779,VALID,43,VALID,0.498828,
2014-03-31, 10:14:04,VALID,917.847,VALID,0,VALID,80.4347,VALID,193.072,VALID,23.6779,VALID,43,VALID,0.435937,
2014-03-31, 10:15:04,VALID,917.854,VALID,0,VALID,80.8997,VALID,192.642,VALID,23.6779,VALID,43,VALID,0.378516,
2014-03-31, 10:16:04,VALID,917.837,VALID,0,VALID,81.0674,VALID,192.642,VALID,23.6797,VALID,43,VALID,0.000390625,
2014-03-31, 10:17:04,VALID,917.829,VALID,0,VALID,82.5463,VALID,192.749,VALID,23.6974,VALID,43,VALID,0.892187,
2014-03-31, 10:18:04,VALID,917.813,VALID,0,VALID,83.0571,VALID,193.072,VALID,23.7578,VALID,43,VALID,0.472656,
2014-03-31, 10:19:04,VALID,917.846,VALID,0,VALID,82.8284,VALID,193.287,VALID,23.6992,VALID,43,VALID,0.640625,
2014-03-31, 10:20:04,VALID,917.843,VALID,0,VALID,83.3163,VALID,193.609,VALID,23.6211,VALID,43,VALID,0.530078,
2014-03-31, 10:21:04,VALID,917.803,VALID,0,VALID,83.8804,VALID,194.039,VALID,23.6016,VALID,43,VALID,0.754687,
2014-03-31, 10:22:04,VALID,917.807,VALID,0,VALID,84.2769,VALID,194.361,VALID,23.6193,VALID,43,VALID,1.04922,
2014-03-31, 10:23:04,VALID,917.813,VALID,0,VALID,84.1396,VALID,194.468,VALID,23.6779,VALID,43,VALID,1.1207,
2014-03-31, 10:24:04,VALID,917.815,VALID,0,VALID,82.4854,VALID,194.254,VALID,23.6584,VALID,10,VALID,1.24727,
2014-03-31, 10:25:04,VALID,917.827,VALID,0,VALID,81.0903,VALID,194.039,VALID,23.6406,VALID,354,VALID,0.945703,
2014-03-31, 10:26:04,VALID,917.824,VALID,0,VALID,81.9746,VALID,193.394,VALID,23.6602,VALID,24,VALID,0.968359,
2014-03-31, 10:27:04,VALID,917.829,VALID,0,VALID,80.732,VALID,192.857,VALID,23.6797,VALID,360,VALID,0.838281,
2014-03-31, 10:28:04,VALID,917.833,VALID,0,VALID,82.3863,VALID,191.997,VALID,23.6602,VALID,2,VALID,0.882813,
2014-03-31, 10:29:04,VALID,917.838,VALID,0,VALID,82.7141,VALID,191.353,VALID,23.6193,VALID,9,VALID,1.38594,
2014-03-31, 10:30:04,VALID,917.803,VALID,0,VALID,82.6683,VALID,190.601,VALID,23.5803,VALID,9,VALID,0.771875,
2014-03-31, 10:31:04,VALID,917.808,VALID,0,VALID,81.9365,VALID,189.956,VALID,23.6211,VALID,358,VALID,0.942187,
2014-03-31, 10:32:04,VALID,917.793,VALID,0,VALID,82.2643,VALID,188.989,VALID,23.6406,VALID,353,VALID,1.24727,
2014-03-31, 10:33:04,VALID,917.774,VALID,0,VALID,81.8602,VALID,188.129,VALID,23.5998,VALID,353,VALID,0.573828,
2014-03-31, 10:34:04,VALID,917.769,VALID,0,VALID,82.7217,VALID,186.84,VALID,23.6602,VALID,20,VALID,0.954297,
2014-03-31, 10:35:04,VALID,917.77,VALID,0,VALID,82.7293,VALID,185.336,VALID,23.6797,VALID,27,VALID,0.865625,
2014-03-31, 10:36:04,VALID,917.771,VALID,0,VALID,83.08,VALID,183.724,VALID,23.6602,VALID,13,VALID,1.24922,
2014-03-31, 10:37:04,VALID,917.771,VALID,0,VALID,82.4167,VALID,181.898,VALID,23.6602,VALID,2,VALID,0.804688,
2014-03-31, 10:38:04,VALID,917.764,VALID,0,VALID,82.4015,VALID,179.856,VALID,23.6779,VALID,35,VALID,1.48242,
2014-03-31, 10:39:04,VALID,917.785,VALID,0,VALID,82.9809,VALID,177.815,VALID,23.6602,VALID,38,VALID,1.39219,
2014-03-31, 10:40:04,VALID,917.754,VALID,0,VALID,83.3849,VALID,175.559,VALID,23.5626,VALID,21,VALID,1.3707,
2014-03-31, 10:41:04,VALID,917.763,VALID,0,VALID,84.2845,VALID,173.303,VALID,23.4845,VALID,37,VALID,1.14727,
2014-03-31, 10:42:04,VALID,917.768,VALID,0,VALID,84.6962,VALID,171.046,VALID,23.4259,VALID,49,VALID,0.857031,
2014-03-31, 10:43:04,VALID,917.739,VALID,0,VALID,84.9477,VALID,168.897,VALID,23.4064,VALID,64,VALID,1.37305,
2014-03-31, 10:44:04,VALID,917.72,VALID,0,VALID,84.7419,VALID,167.071,VALID,23.3478,VALID,66,VALID,0.699219,
2014-03-31, 10:45:04,VALID,917.709,VALID,0,VALID,85.3213,VALID,165.244,VALID,23.3691,VALID,48,VALID,0.766406,
2014-03-31, 10:46:04,VALID,917.698,VALID,0,VALID,84.6352,VALID,163.311,VALID,23.3887,VALID,56,VALID,1.06328,
2014-03-31, 10:47:04,VALID,917.691,VALID,0,VALID,83.484,VALID,161.484,VALID,23.4277,VALID,62,VALID,1.10703,
2014-03-31, 10:48:04,VALID,917.655,VALID,0,VALID,83.4154,VALID,159.443,VALID,23.4863,VALID,43,VALID,0.796484,
2014-03-31, 10:49:04,VALID,917.618,VALID,0,VALID,82.371,VALID,157.294,VALID,23.5058,VALID,42,VALID,0.900781,
2014-03-31, 10:50:04,VALID,917.605,VALID,0,VALID,81.1894,VALID,155.36,VALID,23.4863,VALID,43,VALID,0.340625,
2014-03-31, 10:51:04,VALID,917.593,VALID,0,VALID,80.7472,VALID,153.641,VALID,23.4667,VALID,44,VALID,0.628516,
2014-03-31, 10:52:04,VALID,917.554,VALID,0,VALID,81.662,VALID,152.352,VALID,23.4667,VALID,44,VALID,0.533984,
2014-03-31, 10:53:04,VALID,917.556,VALID,0,VALID,81.4867,VALID,151.492,VALID,23.4667,VALID,44,VALID,0,
2014-03-31, 10:54:04,VALID,917.532,VALID,0,VALID,81.6773,VALID,151.062,VALID,23.5448,VALID,44,VALID,0,
2014-03-31, 10:55:04,VALID,917.506,VALID,0,VALID,81.4562,VALID,151.17,VALID,23.5998,VALID,44,VALID,0,
2014-03-31, 10:56:04,VALID,917.492,VALID,0,VALID,82.1499,VALID,151.277,VALID,23.7187,VALID,41,VALID,0.426953,
2014-03-31, 10:57:04,VALID,917.474,VALID,0,VALID,82.4396,VALID,151.707,VALID,23.756,VALID,165,VALID,0.963281,
2014-03-31, 10:58:04,VALID,917.484,VALID,0,VALID,82.4091,VALID,152.244,VALID,23.7773,VALID,166,VALID,0.719531,
2014-03-31, 10:59:04,VALID,917.454,VALID,0,VALID,81.6773,VALID,153.104,VALID,23.7968,VALID,166,VALID,0.616797,
2014-03-31, 11:00:04,VALID,917.449,VALID,0,VALID,81.3419,VALID,154.178,VALID,23.7773,VALID,166,VALID,0.591016,
2014-03-31, 11:01:04,VALID,917.381,VALID,0,VALID,81.4333,VALID,155.252,VALID,23.7382,VALID,166,VALID,0.325,
2014-03-31, 11:02:04,VALID,917.362,VALID,0,VALID,81.3952,VALID,156.434,VALID,23.6992,VALID,166,VALID,0.257422,